This is the latest recevied weather packets stored in our database for station/object W4TJP. If no packets are shown the sender has not sent any weather packets the latest 10 day(s).
| Time | Temp. | Humidity | Pressure | Rain* | Wind** | Luminosity | Snow |
|---|---|---|---|---|---|---|---|
| 1777242196 | 23.33° C | 52% | 1013.6 hPa | 0 mm | - | 98 W/m² | - |
| 1777241895 | 23.33° C | 51% | 1013.5 hPa | 0 mm | - | 66 W/m² | - |
| 1777241591 | 23.89° C | 49% | 1013.8 hPa | 0 mm | - | 47 W/m² | - |
| 1777241289 | 23.89° C | 45% | 1013.4 hPa | 0 mm | - | 49 W/m² | - |
| 1777240985 | 24.44° C | 45% | 1013.4 hPa | 0 mm | - | 56 W/m² | - |
| 1777240684 | 25° C | 44% | 1013.6 hPa | 0 mm | - | 55 W/m² | - |
| 1777240382 | 25.56° C | 42% | 1013.8 hPa | 0 mm | - | 172 W/m² | - |
| 1777240079 | 25.56° C | 42% | 1013.7 hPa | 0 mm | - | 247 W/m² | - |
| 1777239777 | 25.56° C | 41% | 1013.5 hPa | 0 mm | - | 361 W/m² | - |
| 1777239472 | 26.67° C | 41% | 1013.5 hPa | 0 mm | - | 373 W/m² | - |
| 1777239170 | 26.67° C | 42% | 1013.5 hPa | 0 mm | - | 384 W/m² | - |
| 1777238867 | 26.67° C | 41% | 1013.5 hPa | 0 mm | - | 406 W/m² | - |
| 1777238564 | 26.67° C | 41% | 1013.2 hPa | 0 mm | - | 445 W/m² | - |
| 1777238260 | 26.67° C | 42% | 1013.3 hPa | 0 mm | - | 455 W/m² | - |
| 1777237958 | 26.67° C | 41% | 1013.3 hPa | 0 mm | - | 448 W/m² | - |
| 1777237653 | 26.67° C | 44% | 1013.4 hPa | 0 mm | - | 441 W/m² | - |
| 1777237351 | 25.56° C | 43% | 1013.5 hPa | 0 mm | - | 474 W/m² | - |
| 1777237048 | 25.56° C | 41% | 1013.5 hPa | 0 mm | - | 485 W/m² | - |
| 1777236746 | 25.56° C | 41% | 1013.2 hPa | 0 mm | - | 488 W/m² | - |
| 1777236444 | 26.11° C | 39% | 1013.5 hPa | 0 mm | - | 492 W/m² | - |
| 1777236141 | 26.67° C | 40% | 1013.4 hPa | 0 mm | - | 498 W/m² | - |
| 1777235837 | 26.11° C | 43% | 1013.5 hPa | 0 mm | - | 539 W/m² | - |
| 1777235535 | 26.11° C | 44% | 1013.7 hPa | 0 mm | - | 544 W/m² | - |
| 1777235231 | 26.67° C | 44% | 1013.6 hPa | 0 mm | - | 563 W/m² | - |
| 1777234927 | 26.11° C | 44% | 1013.6 hPa | 0 mm | - | 547 W/m² | - |
* Rain latest hour (hover to see other rain measurements)
** Current wind speed in m/s (hover to see current wind gust speed)